Radiation Dose at Monitoring Post of Fukushima Daini Nuclear Power Station
Date,Time,MP-1(microSv/h),MP-2(microSv/h),MP-3(microSv/h),MP-4(microSv/h),MP-5(microSv/h),MP-6(microSv/h),MP-7(microSv/h),Wind Direction,Wind Velocity(m/s),Rain
2013/02/12,00:00,1.1,0.7,1.1,1.0,0.9,0.5,0.4,north-northeast,3.0,No
2013/02/12,00:10,1.1,0.7,1.1,1.0,0.9,0.5,0.4,north-northeast,2.5,No
2013/02/12,00:20,1.1,0.7,1.1,1.0,0.9,0.5,0.4,north,2.8,No
2013/02/12,00:30,1.1,0.7,1.1,1.0,0.9,0.5,0.4,north,3.0,No
2013/02/12,00:40,1.1,0.7,1.1,1.0,0.9,0.5,0.4,north,2.4,No
2013/02/12,00:50,1.1,0.7,1.1,1.0,0.9,0.5,0.4,north,2.8,No
2013/02/12,01:00,1.1,0.7,1.1,1.0,0.9,0.5,0.4,north,2.9,No
2013/02/12,01:10,1.1,0.7,1.1,1.0,0.9,0.5,0.4,north,2.9,No
2013/02/12,01:20,1.1,0.7,1.1,1.0,0.9,0.5,0.4,north,2.8,No
2013/02/12,01:30,1.1,0.7,1.1,1.0,0.9,0.5,0.4,north-northwest,3.2,No
2013/02/12,01:40,1.1,0.7,1.1,1.0,0.9,0.5,0.4,north,2.8,No
2013/02/12,01:50,1.1,0.7,1.1,1.0,0.9,0.5,0.4,north-northeast,3.0,No
2013/02/12,02:00,1.1,0.7,1.1,1.0,0.9,0.5,0.4,north,2.0,No
2013/02/12,02:10,1.1,0.7,1.1,1.0,0.9,0.5,0.4,north-northwest,1.2,No
2013/02/12,02:20,1.1,0.7,1.1,1.0,0.9,0.5,0.4,north-northwest,1.9,No
2013/02/12,02:30,1.1,0.7,1.1,1.0,0.9,0.5,0.4,north,2.4,No
2013/02/12,02:40,1.1,0.7,1.1,1.0,0.9,0.5,0.4,north,2.1,No
2013/02/12,02:50,1.1,0.7,1.1,1.0,0.9,0.5,0.4,northwest,2.0,No
2013/02/12,03:00,1.1,0.7,1.1,1.0,0.9,0.5,0.4,northwest,1.9,No
2013/02/12,03:10,1.1,0.7,1.1,1.0,0.9,0.5,0.4,northwest,2.0,No
2013/02/12,03:20,1.1,0.7,1.1,1.0,0.9,0.5,0.4,north-northwest,2.7,No
2013/02/12,03:30,1.1,0.7,1.1,1.0,0.9,0.5,0.4,north-northwest,1.8,No
2013/02/12,03:40,1.1,0.7,1.1,1.0,0.9,0.5,0.4,west-northwest,1.1,No
2013/02/12,03:50,1.1,0.7,1.1,1.0,0.9,0.5,0.4,west,2.2,No
2013/02/12,04:00,1.1,0.7,1.1,1.0,0.9,0.5,0.4,west,2.6,No
2013/02/12,04:10,1.1,0.7,1.1,1.0,0.9,0.5,0.4,west,2.9,No
2013/02/12,04:20,1.1,0.7,1.1,1.0,0.9,0.5,0.4,west-northwest,4.7,No
2013/02/12,04:30,1.1,0.7,1.1,1.0,0.9,0.5,0.4,west-northwest,4.8,No
2013/02/12,04:40,1.1,0.7,1.1,1.0,0.9,0.5,0.4,west-northwest,4.2,No
2013/02/12,04:50,1.1,0.7,1.1,1.0,0.9,0.5,0.4,northwest,5.1,No
2013/02/12,05:00,1.1,0.7,1.1,1.0,0.9,0.5,0.4,northwest,6.3,No
2013/02/12,05:10,1.1,0.7,1.1,1.0,0.9,0.5,0.4,northwest,5.7,No
2013/02/12,05:20,1.1,0.7,1.1,1.0,0.9,0.5,0.4,northwest,5.8,No
2013/02/12,05:30,1.1,0.7,1.1,1.0,0.9,0.5,0.4,northwest,4.9,No
2013/02/12,05:40,1.1,0.7,1.1,1.0,0.9,0.5,0.4,northwest,3.8,No
2013/02/12,05:50,1.1,0.7,1.1,1.0,0.9,0.5,0.4,northwest,3.4,No
2013/02/12,06:00,1.1,0.7,1.1,1.0,0.9,0.5,0.4,west-northwest,3.0,No
2013/02/12,06:10,1.1,0.7,1.1,1.0,0.9,0.5,0.4,northwest,1.8,No
2013/02/12,06:20,1.1,0.7,1.1,1.0,0.9,0.5,0.4,west-northwest,2.5,No
2013/02/12,06:30,1.1,0.7,1.1,1.0,0.9,0.5,0.4,northwest,4.3,No
2013/02/12,06:40,1.1,0.7,1.1,1.0,0.9,0.5,0.4,west-northwest,4.6,No
2013/02/12,06:50,1.1,0.7,1.1,1.0,0.9,0.5,0.4,northwest,5.4,No
2013/02/12,07:00,1.1,0.7,1.1,1.0,0.9,0.5,0.4,northwest,6.2,No
2013/02/12,07:10,1.1,0.7,1.1,1.0,0.9,0.5,0.4,northwest,6.4,No
2013/02/12,07:20,1.1,0.7,1.1,1.0,0.9,0.5,0.4,northwest,5.8,No
2013/02/12,07:30,1.1,0.7,1.1,1.0,0.9,0.5,0.4,west-northwest,5.4,No
2013/02/12,07:40,1.1,0.7,1.1,1.0,0.9,0.5,0.4,northwest,1.8,No
2013/02/12,07:50,1.1,0.7,1.1,1.0,0.9,0.5,0.4,northwest,2.9,No
2013/02/12,08:00,1.1,0.7,1.1,1.0,0.9,0.5,0.4,northwest,6.1,No
2013/02/12,08:10,1.1,0.7,1.1,1.0,0.9,0.5,0.4,northwest,5.0,No
2013/02/12,08:20,1.1,0.7,1.1,1.0,0.9,0.5,0.4,northwest,4.0,No
2013/02/12,08:30,1.1,0.7,1.1,1.0,0.9,0.5,0.4,north-northwest,3.1,No
2013/02/12,08:40,1.1,0.7,1.1,1.0,0.9,0.5,0.4,northwest,4.1,No
2013/02/12,08:50,1.1,0.7,1.1,1.0,0.9,0.5,0.4,northwest,6.9,No
2013/02/12,09:00,1.1,0.7,1.1,1.0,0.9,0.5,0.4,northwest,5.1,No
2013/02/12,09:10,1.1,0.7,1.1,1.0,0.9,0.5,0.4,northwest,3.9,No
2013/02/12,09:20,1.1,0.7,1.1,1.0,0.9,0.5,0.4,northwest,5.0,No
2013/02/12,09:30,1.1,0.7,1.1,1.0,0.9,0.5,0.4,north,3.8,No
2013/02/12,09:40,1.1,0.7,1.1,1.0,0.9,0.5,0.4,north-northwest,2.5,No
2013/02/12,09:50,1.1,0.7,1.1,1.0,0.9,0.5,0.4,north-northwest,5.1,No
2013/02/12,10:00,1.1,0.7,1.1,1.0,0.9,0.5,0.4,northwest,7.2,No
2013/02/12,10:10,1.1,0.7,1.1,1.0,0.9,0.5,0.4,northwest,6.5,No
2013/02/12,10:20,1.1,0.7,1.1,1.0,0.9,0.5,0.4,northwest,5.3,No
2013/02/12,10:30,1.1,0.7,1.1,1.0,0.9,0.5,0.4,northwest,6.7,No
2013/02/12,10:40,1.1,0.7,1.1,1.0,0.9,0.5,0.4,northwest,7.0,No
2013/02/12,10:50,1.1,0.7,1.1,1.0,0.9,0.5,0.4,north-northwest,5.3,No
2013/02/12,11:00,1.1,0.7,1.1,1.0,0.9,0.5,0.4,north-northwest,5.7,No
2013/02/12,11:10,1.1,0.7,1.1,1.0,0.9,0.5,0.4,north-northeast,4.4,No
2013/02/12,11:20,1.1,0.7,1.1,1.0,0.9,0.5,0.4,north-northeast,3.6,No
2013/02/12,11:30,1.1,0.7,1.1,1.0,0.9,0.5,0.4,northeast,4.2,No
2013/02/12,11:40,1.1,0.7,1.1,1.0,0.9,0.5,0.4,northeast,3.6,No
2013/02/12,11:50,1.1,0.7,1.1,1.0,0.9,0.5,0.4,northeast,4.7,No
2013/02/12,12:00,1.1,0.7,1.1,1.0,0.9,0.5,0.4,east-northeast,5.7,No
2013/02/12,12:10,1.1,0.7,1.1,1.0,0.9,0.5,0.4,northeast,4.6,No
2013/02/12,12:20,1.1,0.7,1.1,1.0,0.9,0.5,0.4,east-northeast,4.7,No
2013/02/12,12:30,1.1,0.7,1.1,1.0,0.9,0.5,0.4,east,4.6,No
2013/02/12,12:40,1.1,0.7,1.1,1.0,0.9,0.5,0.4,east,3.8,No
2013/02/12,12:50,1.1,0.7,1.1,1.0,0.9,0.5,0.4,east-northeast,4.9,No
2013/02/12,13:00,1.1,0.7,1.1,1.0,0.9,0.5,0.4,east-southeast,4.1,No
2013/02/12,13:10,1.1,0.7,1.1,1.0,0.9,0.5,0.4,east-southeast,3.0,No
2013/02/12,13:20,1.1,0.7,1.1,1.0,0.9,0.5,0.4,east-southeast,4.0,No
2013/02/12,13:30,1.1,0.7,1.1,1.0,0.9,0.5,0.4,east-southeast,3.9,No
2013/02/12,13:40,1.1,0.7,1.1,1.0,0.9,0.5,0.4,east-southeast,3.3,No
2013/02/12,13:50,1.1,0.7,1.1,1.0,0.9,0.5,0.4,east-southeast,3.3,No
2013/02/12,14:00,1.1,0.7,1.1,1.0,0.9,0.5,0.4,east-southeast,2.7,No
2013/02/12,14:10,1.1,0.7,1.1,1.0,0.9,0.5,0.4,east-southeast,2.4,No
2013/02/12,14:20,1.1,0.7,1.1,1.0,0.9,0.5,0.4,southeast,2.3,No
2013/02/12,14:30,1.1,0.7,1.1,1.0,0.9,0.5,0.4,east-southeast,2.3,No
2013/02/12,14:40,1.1,0.7,1.1,1.0,0.9,0.5,0.4,southeast,2.4,No
2013/02/12,14:50,1.1,0.7,1.1,1.0,0.9,0.5,0.4,east-southeast,2.7,No
2013/02/12,15:00,1.1,0.7,1.1,1.0,0.9,0.5,0.4,east-southeast,3.7,No
2013/02/12,15:10,1.1,0.7,1.1,1.0,0.9,0.5,0.4,southeast,2.6,No
2013/02/12,15:20,1.1,0.7,1.1,1.0,0.9,0.5,0.4,southeast,3.4,No
2013/02/12,15:30,1.1,0.7,1.1,1.0,0.9,0.5,0.4,southeast,2.4,No
2013/02/12,15:40,1.1,0.7,1.1,1.0,0.9,0.5,0.4,south-southeast,2.7,No
2013/02/12,15:50,1.1,0.7,1.1,1.0,0.9,0.5,0.4,south-southeast,3.2,No
2013/02/12,16:00,1.1,0.7,1.1,1.0,0.9,0.5,0.4,southeast,3.8,No
2013/02/12,16:10,1.1,0.7,1.1,1.0,0.9,0.5,0.4,southeast,4.4,No
2013/02/12,16:20,1.1,0.7,1.1,1.0,0.9,0.5,0.4,south-southeast,3.5,No
2013/02/12,16:30,1.1,0.7,1.1,1.0,0.9,0.5,0.4,south-southeast,2.9,No
2013/02/12,16:40,1.1,0.7,1.1,1.0,0.9,0.5,0.4,south-southeast,3.0,No
2013/02/12,16:50,1.1,0.7,1.1,1.0,0.9,0.5,0.4,south-southeast,4.3,No
2013/02/12,17:00,1.1,0.7,1.1,1.0,0.9,0.5,0.4,south-southeast,5.6,No
2013/02/12,17:10,1.1,0.7,1.1,1.0,0.9,0.5,0.4,south,6.2,No
2013/02/12,17:20,1.1,0.7,1.1,1.0,0.9,0.5,0.4,south,5.9,No
2013/02/12,17:30,1.1,0.7,1.1,1.0,0.9,0.5,0.4,south,6.4,No
2013/02/12,17:40,1.1,0.7,1.1,1.0,0.9,0.5,0.4,south,7.2,No
2013/02/12,17:50,1.1,0.7,1.1,1.0,0.9,0.5,0.4,south-southwest,6.2,No
2013/02/12,18:00,1.1,0.7,1.1,1.0,0.9,0.5,0.4,south-southwest,5.6,No
2013/02/12,18:10,1.1,0.7,1.1,1.0,0.9,0.5,0.4,south-southwest,5.1,No
2013/02/12,18:20,1.1,0.7,1.1,1.0,0.9,0.5,0.4,south-southwest,6.6,No
2013/02/12,18:30,1.1,0.7,1.1,1.0,0.9,0.5,0.4,south-southwest,6.3,No
2013/02/12,18:40,1.1,0.7,1.1,1.0,0.9,0.5,0.4,south-southwest,5.8,No
2013/02/12,18:50,1.1,0.7,1.1,1.0,0.9,0.5,0.4,south-southwest,5.2,No
2013/02/12,19:00,1.1,0.7,1.1,1.0,0.9,0.5,0.4,south-southwest,5.6,No
2013/02/12,19:10,1.1,0.7,1.1,1.0,0.9,0.5,0.4,south-southwest,5.6,No
2013/02/12,19:20,1.1,0.7,1.1,1.0,0.9,0.5,0.4,south-southwest,5.8,No
2013/02/12,19:30,1.1,0.7,1.1,1.0,0.9,0.5,0.4,south-southwest,5.3,No
2013/02/12,19:40,1.1,0.7,1.1,1.0,0.9,0.5,0.4,southwest,4.4,No
2013/02/12,19:50,1.1,0.7,1.1,1.0,0.9,0.5,0.4,south-southwest,4.0,No
2013/02/12,20:00,1.1,0.7,1.1,1.0,0.9,0.5,0.4,south-southwest,4.5,No
2013/02/12,20:10,1.1,0.7,1.1,1.0,0.9,0.5,0.4,south-southwest,4.6,No
2013/02/12,20:20,1.1,0.7,1.1,1.0,0.9,0.5,0.4,south-southwest,4.4,No
2013/02/12,20:30,1.1,0.7,1.1,1.0,0.9,0.5,0.4,southwest,4.2,No
2013/02/12,20:40,1.1,0.7,1.1,1.0,0.9,0.5,0.4,southwest,4.1,No
2013/02/12,20:50,1.1,0.7,1.1,1.0,0.9,0.5,0.4,southwest,2.8,No
2013/02/12,21:00,1.1,0.7,1.1,1.0,0.9,0.5,0.4,southwest,3.1,No
2013/02/12,21:10,1.1,0.7,1.1,1.0,0.9,0.5,0.4,southwest,2.7,No
2013/02/12,21:20,1.1,0.7,1.1,1.0,0.9,0.5,0.4,southwest,2.5,No
2013/02/12,21:30,1.1,0.7,1.1,1.0,0.9,0.5,0.4,southwest,2.1,Yes
2013/02/12,21:40,1.1,0.7,1.1,1.0,0.9,0.5,0.4,west-southwest,3.4,Yes
2013/02/12,21:50,1.1,0.7,1.1,1.0,0.9,0.5,0.4,west-southwest,2.7,Yes
2013/02/12,22:00,1.1,0.7,1.1,1.0,0.9,0.5,0.4,west-southwest,0.6,Yes
2013/02/12,22:10,1.1,0.7,1.1,1.0,0.9,0.5,0.4,southwest,2.1,Yes
2013/02/12,22:20,1.1,0.7,1.1,1.0,0.9,0.5,0.4,south-southwest,1.2,Yes
2013/02/12,22:30,1.1,0.7,1.1,1.0,0.9,0.5,0.4,southwest,0.9,Yes
2013/02/12,22:40,1.1,0.7,1.1,1.0,0.9,0.5,0.4,north-northwest,0.7,Yes
2013/02/12,22:50,1.1,0.7,1.1,1.0,0.9,0.5,0.4,northwest,0.9,Yes
2013/02/12,23:00,1.1,0.7,1.1,1.0,0.9,0.5,0.4,north,0.9,Yes
2013/02/12,23:10,1.1,0.7,1.1,1.0,0.9,0.5,0.4,northwest,1.2,Yes
2013/02/12,23:20,1.1,0.7,1.1,1.0,0.9,0.5,0.4,west-northwest,0.9,Yes
2013/02/12,23:30,1.1,0.7,1.1,1.0,0.9,0.5,0.4,northwest,0.9,Yes
2013/02/12,23:40,1.1,0.7,1.1,1.0,0.9,0.5,0.4,-,CALM,Yes
2013/02/12,23:50,1.1,0.7,1.1,1.0,0.9,0.5,0.4,-,CALM,Yes
